This is the latest recevied weather packets stored in our database for station/object DG6HD-13. If no packets are shown the sender has not sent any weather packets the latest 1 day(s).
| Time | Temp. | Humidity | Pressure | Rain* | Wind** | Luminosity | Snow |
|---|---|---|---|---|---|---|---|
| 1777769703 | 14.44° C | 45% | 1013.6 hPa | - | - | - | - |
| 1777768803 | 14.44° C | 45% | 1013.6 hPa | - | - | - | - |
| 1777767902 | 15° C | 45% | 1013.7 hPa | - | - | - | - |
| 1777767001 | 15° C | 44% | 1013.6 hPa | - | - | - | - |
| 1777766100 | 15° C | 43% | 1013.7 hPa | - | - | - | - |
| 1777765199 | 15.56° C | 42% | 1013.9 hPa | - | - | - | - |
| 1777764298 | 15.56° C | 42% | 1013.9 hPa | - | - | - | - |
| 1777763398 | 15.56° C | 42% | 1014 hPa | - | - | - | - |
| 1777762497 | 16.11° C | 42% | 1013.9 hPa | - | - | - | - |
| 1777761596 | 16.11° C | 42% | 1013.8 hPa | - | - | - | - |
| 1777760695 | 16.11° C | 41% | 1013.8 hPa | - | - | - | - |
| 1777759794 | 16.67° C | 41% | 1013.9 hPa | - | - | - | - |
| 1777758894 | 16.67° C | 40% | 1013.9 hPa | - | - | - | - |
| 1777757092 | 17.22° C | 40% | 1014.1 hPa | - | - | - | - |
| 1777756191 | 17.22° C | 39% | 1014.2 hPa | - | - | - | - |
| 1777755290 | 17.78° C | 39% | 1014.3 hPa | - | - | - | - |
| 1777754389 | 17.78° C | 39% | 1014.2 hPa | - | - | - | - |
| 1777753488 | 18.33° C | 38% | 1014.3 hPa | - | - | - | - |
| 1777752587 | 18.33° C | 38% | 1014.4 hPa | - | - | - | - |
| 1777751686 | 18.89° C | 38% | 1014.5 hPa | - | - | - | - |
| 1777750785 | 18.89° C | 37% | 1014.5 hPa | - | - | - | - |
| 1777749885 | 19.44° C | 37% | 1014.5 hPa | - | - | - | - |
| 1777748984 | 19.44° C | 37% | 1014.5 hPa | - | - | - | - |
| 1777748083 | 19.44° C | 38% | 1014.3 hPa | - | - | - | - |
| 1777747182 | 19.44° C | 38% | 1014.5 hPa | - | - | - | - |
* Rain since midnight (hover to see other rain measurements)
** Current wind speed in m/s (hover to see current wind gust speed)